Weather History for K54J - December, 2013

Change the Weather History Date:

Tuesday, December 24, 2013

  Actual Average (KCEW) Record (KCEW)
Temperature  
Mean Temperature 41 °F -  
Max Temperature 51 °F 59 °F 75 °F (1997)
Min Temperature 31 °F 37 °F 9 °F (1989)
Degree Days  
Heating Degree Days 24    
Moisture  
Dew Point 29 °F    
Average Humidity 67    
Maximum Humidity 94    
Minimum Humidity 39    
Precipitation  
Precipitation 0.06 in - - ()
Sea Level Pressure  
Sea Level Pressure 30.38 in    
Wind  
Wind Speed 11 mph (North)    
Max Wind Speed 18 mph    
Max Gust Speed 24 mph    
Visibility 10 miles    
Events      
Averages and records for this station are not official NWS values.
T = Trace of Precipitation, MM = Missing Value Source: NWS Daily Summary

Daily Weather History Graph

Daily Weather History Graph

Search for Another Location

Airport or City:

Trip Planner

Search our weather history database for the weather conditions in past years. The results will help you decide how hot, cold, wet, or windy it might be!

Date:

Astronomy

Dec. 24, 2013 Rise Set
Actual Time 6:39 AM CST 4:49 PM CST
Civil Twilight 6:12 AM CST 5:15 PM CST
Nautical Twilight 5:42 AM CST 5:45 PM CST
Astronomical Twilight 5:13 AM CST 6:15 PM CST
Moon 11:29 PM CST (12/24) 10:58 AM CST (12/24)
Length of Visible Light 11h 02m
Length of Day
10h 09m
Waning Gibbous, 58% of the Moon is Illuminated
Dec 24
Waning Gibbous
Dec 25
Last Quarter
Jan 1
New
Jan 7
First Quarter
Jan 15
Full

Hourly Weather History & Observations

Time (CST) Temp. Windchill Dew Point Humidity Pressure Visibility Wind Dir Wind Speed Gust Speed Precip Events Conditions
12:15 AM 40.5 °F 32.8 °F 34.3 °F 79% 30.34 in 10.0 mi North 13.8 mph 20.7 mph N/A   Overcast
12:35 AM 40.1 °F 32.7 °F 34.0 °F 79% 30.34 in 10.0 mi North 12.7 mph - N/A   Overcast
12:55 AM 39.6 °F 32.5 °F 33.4 °F 79% 30.35 in 10.0 mi NNW 11.5 mph 19.6 mph 0.01 in   Overcast
1:10 AM 39.0 °F 32.3 °F 33.3 °F 80% 30.35 in 10.0 mi NNW 10.4 mph 17.3 mph N/A   Mostly Cloudy
1:35 AM 38.3 °F 31.4 °F 32.9 °F 81% 30.35 in 10.0 mi North 10.4 mph 16.1 mph N/A   Scattered Clouds
1:55 AM 37.6 °F 30.0 °F 32.0 °F 80% 30.35 in 10.0 mi North 11.5 mph - N/A   Clear
2:15 AM 37.0 °F 29.3 °F 32.0 °F 82% 30.35 in 10.0 mi NNW 11.5 mph - N/A   Clear
2:35 AM 36.7 °F 29.9 °F 32.0 °F 83% 30.35 in 10.0 mi North 9.2 mph - N/A   Clear
2:55 AM 36.1 °F 27.7 °F 32.0 °F 85% 30.36 in 10.0 mi North 12.7 mph - N/A   Clear
3:15 AM 35.6 °F 27.1 °F 32.0 °F 87% 30.36 in 10.0 mi North 12.7 mph - N/A   Clear
3:35 AM 35.1 °F 26.9 °F 31.8 °F 88% 30.36 in 10.0 mi North 11.5 mph 17.3 mph 0.01 in   Clear
3:55 AM 34.7 °F 25.9 °F 31.8 °F 89% 30.35 in 10.0 mi North 12.7 mph 17.3 mph 0.01 in   Clear
4:15 AM 34.0 °F 25.5 °F 31.6 °F 91% 30.36 in 10.0 mi North 11.5 mph 16.1 mph N/A   Clear
4:35 AM 33.8 °F 27.0 °F 31.5 °F 91% 30.36 in 10.0 mi North 8.1 mph - N/A   Clear
4:55 AM 33.1 °F 25.5 °F 31.1 °F 92% 30.36 in 10.0 mi North 9.2 mph - N/A   Clear
5:15 AM 32.9 °F 24.1 °F 31.1 °F 93% 30.37 in 10.0 mi North 11.5 mph - N/A   Clear
5:35 AM 32.9 °F 24.7 °F 30.9 °F 92% 30.38 in 10.0 mi North 10.4 mph - N/A   Clear
5:55 AM 32.5 °F 24.8 °F 30.9 °F 94% 30.39 in 10.0 mi North 9.2 mph - N/A   Clear
6:15 AM 32.2 °F 25.0 °F 30.7 °F 94% 30.40 in 10.0 mi North 8.1 mph - N/A   Clear
6:35 AM 32.0 °F 23.6 °F 30.6 °F 94% 30.41 in 10.0 mi NNW 10.4 mph - N/A   Clear
6:55 AM 32.0 °F 23.0 °F 30.2 °F 93% 30.42 in 10.0 mi North 11.5 mph - 0.01 in   Clear
7:15 AM 32.2 °F 23.2 °F 30.6 °F 94% 30.43 in 10.0 mi North 11.5 mph - N/A   Clear
7:35 AM 32.9 °F 25.3 °F 30.6 °F 91% 30.43 in 10.0 mi North 9.2 mph - N/A   Clear
7:55 AM 33.6 °F 25.0 °F 30.2 °F 87% 30.44 in 10.0 mi North 11.5 mph - N/A   Clear
8:15 AM 35.2 °F 27.1 °F 30.4 °F 82% 30.44 in 10.0 mi North 11.5 mph - N/A   Clear
8:35 AM 36.5 °F 28.2 °F 29.8 °F 77% 30.44 in 10.0 mi North 12.7 mph 17.3 mph N/A   Clear
8:55 AM 37.9 °F 30.5 °F 29.7 °F 72% 30.45 in 10.0 mi North 11.5 mph - N/A   Clear
9:15 AM 39.6 °F 31.3 °F 28.8 °F 65% 30.45 in 10.0 mi North 15.0 mph 18.4 mph N/A   Clear
9:35 AM 41.7 °F 35.2 °F 29.7 °F 62% 30.45 in 10.0 mi North 11.5 mph 16.1 mph N/A   Clear
9:55 AM 42.6 °F 35.9 °F 27.5 °F 55% 30.45 in 10.0 mi North 12.7 mph 18.4 mph N/A   Clear
10:15 AM 44.2 °F 38.0 °F 26.4 °F 50% 30.44 in 10.0 mi North 12.7 mph 17.3 mph N/A   Clear
10:35 AM 45.5 °F 39.2 °F 27.1 °F 49% 30.43 in 10.0 mi North 13.8 mph - 0.01 in   Clear
10:55 AM 46.4 °F 40.1 °F 24.8 °F 43% 30.42 in 10.0 mi North 15.0 mph 21.9 mph 0.01 in   Clear
11:15 AM 47.1 °F - 25.9 °F 44% 30.41 in 10.0 mi North 12.7 mph - N/A   Clear
11:35 AM 48.7 °F - 26.2 °F 42% 30.41 in 10.0 mi North 16.1 mph - N/A   Clear
11:55 AM 49.6 °F - 27.7 °F 43% 30.39 in 10.0 mi North 13.8 mph 17.3 mph N/A   Clear
12:15 PM 50.0 °F - 28.6 °F 44% 30.38 in 10.0 mi North 15.0 mph 19.6 mph N/A   Clear
12:35 PM 49.8 °F - 28.9 °F 45% 30.37 in 10.0 mi North 12.7 mph - N/A   Clear
12:55 PM 50.5 °F - 27.9 °F 42% 30.36 in 10.0 mi North 13.8 mph 20.7 mph N/A   Clear
1:15 PM 51.4 °F - 27.7 °F 40% 30.35 in 10.0 mi North 18.4 mph 24.2 mph 0.01 in   Clear
1:35 PM 50.9 °F - 26.4 °F 39% 30.35 in 10.0 mi NNW 17.3 mph 23.0 mph 0.01 in   Clear
1:55 PM 51.3 °F - 27.0 °F 39% 30.35 in 10.0 mi North 12.7 mph 18.4 mph 0.01 in   Clear
2:15 PM 51.4 °F - 28.2 °F 41% 30.35 in 10.0 mi North 12.7 mph 16.1 mph N/A   Clear
2:35 PM 51.6 °F - 28.6 °F 41% 30.35 in 10.0 mi North 11.5 mph 17.3 mph N/A   Clear
2:55 PM 51.1 °F - 27.3 °F 40% 30.35 in 10.0 mi North 12.7 mph - N/A   Clear
3:15 PM 50.9 °F - 26.8 °F 39% 30.34 in 10.0 mi North 12.7 mph 18.4 mph N/A   Clear
3:35 PM 50.4 °F - 26.1 °F 39% 30.34 in 10.0 mi North 16.1 mph 21.9 mph N/A   Clear
3:55 PM 49.5 °F - 25.9 °F 40% 30.35 in 10.0 mi North 11.5 mph - N/A   Clear
4:15 PM 48.6 °F - 26.6 °F 42% 30.35 in 10.0 mi North 12.7 mph - N/A   Clear
4:35 PM 47.3 °F - 26.8 °F 45% 30.35 in 10.0 mi North 9.2 mph - N/A   Clear
4:55 PM 45.7 °F 41.5 °F 27.1 °F 48% 30.35 in 10.0 mi North 8.1 mph - N/A   Clear
5:15 PM 44.2 °F 40.3 °F 27.7 °F 52% 30.35 in 10.0 mi North 6.9 mph - N/A   Clear
5:35 PM 42.8 °F 38.6 °F 28.4 °F 57% 30.35 in 10.0 mi North 6.9 mph - 0.01 in   Clear
5:55 PM 42.3 °F 37.9 °F 28.0 °F 57% 30.35 in 10.0 mi North 6.9 mph - 0.01 in   Clear
6:15 PM 41.2 °F 37.3 °F 28.0 °F 60% 30.36 in 10.0 mi North 5.8 mph - N/A   Clear
6:35 PM 41.0 °F 35.8 °F 26.8 °F 57% 30.36 in 10.0 mi North 8.1 mph - N/A   Clear
6:55 PM 40.1 °F 35.3 °F 26.2 °F 58% 30.36 in 10.0 mi North 6.9 mph - N/A   Clear
7:15 PM 39.6 °F 34.7 °F 25.5 °F 57% 30.36 in 10.0 mi North 6.9 mph - N/A   Clear
7:35 PM 39.4 °F 36.1 °F 25.2 °F 57% 30.37 in 10.0 mi North 4.6 mph - N/A   Clear
7:55 PM 38.5 °F 35.0 °F 25.0 °F 58% 30.38 in 10.0 mi North 4.6 mph - N/A   Clear
8:15 PM 37.9 °F 34.4 °F 25.5 °F 61% 30.39 in 10.0 mi NNW 4.6 mph - N/A   Clear
8:35 PM 35.8 °F 31.9 °F 26.2 °F 68% 30.39 in 10.0 mi North 4.6 mph - N/A   Clear
8:55 PM 35.4 °F 29.7 °F 26.2 °F 69% 30.38 in 10.0 mi North 6.9 mph - N/A   Clear
9:15 PM 35.6 °F 30.7 °F 25.7 °F 67% 30.38 in 10.0 mi North 5.8 mph - N/A   Clear
9:35 PM 35.1 °F 30.1 °F 26.1 °F 70% 30.38 in 10.0 mi North 5.8 mph - N/A   Clear
9:55 PM 34.5 °F 29.4 °F 26.4 °F 72% 30.38 in 10.0 mi North 5.8 mph - N/A   Clear
10:15 PM 33.8 °F 29.6 °F 26.6 °F 75% 30.38 in 10.0 mi NNW 4.6 mph - N/A   Clear
10:35 PM 33.3 °F 28.9 °F 26.6 °F 77% 30.38 in 10.0 mi North 4.6 mph - N/A   Clear
10:55 PM 32.4 °F 27.9 °F 27.0 °F 80% 30.38 in 10.0 mi NNW 4.6 mph - N/A   Clear
11:15 PM 32.2 °F 25.8 °F 27.3 °F 82% 30.38 in 10.0 mi North 6.9 mph - N/A   Clear
11:35 PM 31.8 °F 26.2 °F 26.8 °F 82% 30.38 in 10.0 mi North 5.8 mph - N/A   Clear
11:55 PM 32.0 °F 26.4 °F 27.3 °F 83% 30.37 in 10.0 mi North 5.8 mph - N/A   Clear